Regional Weather Roundup
Issued by NWS

Home | Current Version | Previous Version | Text Only | Print | Product List | Glossary Off
Versions: 1 2 3 4 5 6 7 8 9 10 11 12 13 14 15 16 17 18 19 20 21 22 23 24 25 26 27 28 29 30 31 32 33 34 35 36 37 38 39 40 41 42 43 44 45 46 47 48 49 50

000
ASUS43 KFSD 011310
RWRSD

WEATHER ROUNDUP FOR SOUTH DAKOTA
NATIONAL WEATHER SERVICE SIOUX FALLS SD
700 AM CST SUN FEB 01 2015

NOTE: "FAIR" INDICATES FEW OR NO CLOUDS BELOW 12,000 FEET WITH NO
SIGNIFICANT WEATHER AND/OR OBSTRUCTIONS TO VISIBILITY.


SDZ001>005-009-010-012>017-011400-
NORTHWEST AND NORTH CENTRAL SOUTH DAKOTA

CITY           SKY/WX    TMP DP  RH WIND       PRES   REMARKS
BUFFALO          N/A      0  -6  76 NW12      30.27R WCI -17
FAITH            N/A     -3  -9  75 N16       30.35R WCI -24
MOBRIDGE       LGT SNOW  -3 -10  72 N15       30.39R WCI -23
$$

SDZ012>016-024>037-041>051-057-063-072>074-011400-
SOUTHWEST AND SOUTH CENTRAL SOUTH DAKOTA

CITY           SKY/WX    TMP DP  RH WIND       PRES   REMARKS
RAPID CTY ARPT MOCLDY     2  -2  83 N16       30.29R WCI -18
PIERRE         LGT SNOW  -1  -7  75 N22       30.37R WCI -24
CUSTER         PTCLDY     6   0  76 N6        30.03R WCI  -4
ELLSWORTH AFB  MOCLDY     1  -2  85 N14       30.29  WCI -17
PHILIP         CLOUDY     2  -5  72 N20G26    30.36R WCI -19
PINE RIDGE     CLOUDY     4  -2  76 N8        30.25R HAZE    WCI  -9
WINNER         LGT SNOW   4  -1  80 N24G32    30.29R VSB 1   WCI -19
$$

SDZ004>011-016>023-039-040-011400-
NORTHEAST SOUTH DAKOTA

CITY           SKY/WX    TMP DP  RH WIND       PRES   REMARKS
ABERDEEN       LGT SNOW  -1  -8  72 N23       30.39R WCI -25
WATERTOWN      CLOUDY    -1  -6  79 N21       30.23R WCI -24
SISSETON         N/A     -2  -9  72 N21       30.38R WCI -25
$$

SDZ017-020-022-023-036>040-048>070-011400-
SOUTHEAST SOUTH DAKOTA

CITY           SKY/WX    TMP DP  RH WIND       PRES   REMARKS
SIOUX FALLS    LGT SNOW   8   3  80 N29G36    30.14R VSB 3/4 WCI -15
HURON          LGT SNOW   0  -5  79 N21G30    30.32R WCI -22
CHAMBERLAIN    LGT SNOW   1  -4  80 N22G29    30.29R WCI -22
MITCHELL       LGT SNOW   3  -1  83 N21       30.28R FOG     WCI -18
YANKTON        CLOUDY   N/A N/A N/A N26G33    30.16R
$$

ABBREVIATIONS USED IN REMARKS
   TC - TEMPERATURE IN CELSIUS
  WCI - WIND CHILL INDEX
   HX - HEAT INDEX
  VSB - VISIBILITY




USA.gov is the U.S. government's official web portal to all federal, state and local government web resources and services.